PDT,Max TemperatureF,Mean TemperatureF,Min TemperatureF,Max Dew PointF,MeanDew PointF,Min DewpointF,Max Humidity, Mean Humidity, Min Humidity, Max Sea Level PressureIn, Mean Sea Level PressureIn, Min Sea Level PressureIn, Max VisibilityMiles, Mean VisibilityMiles, Min VisibilityMiles, Max Wind SpeedMPH, Mean Wind SpeedMPH, Max Gust SpeedMPH,PrecipitationIn, CloudCover, Events, WindDirDegrees
2012-10-1,81,68,55,67,62,56,100,85,58,29.94,29.89,29.82,10,7,2,7,4,,0.00,0,,274
2012-10-2,84,68,57,66,62,56,100,78,56,29.86,29.83,29.81,9,7,4,10,3,,0.00,0,,295
2012-10-3,70,63,57,65,63,60,100,96,83,30.04,29.95,29.87,7,3,0,10,4,,0.00,6,Fog,257
2012-10-4,69,65,60,62,61,59,100,90,76,30.13,30.07,30.04,7,6,5,12,5,,0.00,5,,274
2012-10-5,72,63,55,65,60,55,100,95,75,30.07,30.02,29.94,7,4,0,9,5,,0.00,5,Fog,46
2012-10-6,72,64,57,67,61,57,100,93,81,29.98,29.93,29.87,7,6,4,12,3,,0.00,3,,288
2012-10-7,72,64,55,65,61,56,100,93,73,29.95,29.91,29.89,7,5,4,12,3,,0.00,0,,312
2012-10-8,71,62,54,63,60,54,100,91,71,29.99,29.96,29.93,7,6,2,14,3,,0.00,1,,256
2012-10-9,71,62,53,63,60,53,100,93,70,30.00,29.97,29.94,8,6,4,14,4,24,0.00,3,,267
2012-10-10,69,61,54,63,59,54,100,93,75,30.00,29.96,29.92,8,7,5,12,5,,0.00,5,Rain-Tornado,255
2012-10-11,68,62,55,60,57,55,100,90,70,29.97,29.93,29.90,7,7,5,12,3,,0.00,5,,325
2012-10-12,69,61,53,60,57,53,100,90,70,30.17,30.09,29.97,7,7,5,13,5,,0.00,3,,309
2012-10-13,70,61,53,62,58,53,100,91,70,30.20,30.12,30.06,7,6,5,9,4,,0.00,1,,328
2012-10-14,77,64,52,65,60,52,100,88,63,30.07,30.01,29.95,7,7,5,13,4,,0.00,0,,308
2012-10-15,79,68,57,68,62,53,100,88,68,29.94,29.90,29.86,8,7,5,12,5,,0.00,1,,311
2012-10-16,78,63,53,66,61,53,100,86,66,29.87,29.81,29.73,8,7,4,9,3,,0.00,0,,208
2012-10-17,80,67,55,68,62,54,100,84,66,29.81,29.77,29.74,8,7,4,10,4,,0.00,0,,280
2012-10-18,77,68,60,70,66,57,100,90,73,30.05,29.99,29.83,7,7,6,24,7,31,0.00,3,,144
2012-10-19,69,65,62,66,64,62,100,99,93,30.02,29.97,29.90,7,7,4,12,4,,0.00,6,,318
2012-10-20,69,65,62,66,64,63,100,99,93,29.91,29.87,29.83,7,6,4,13,5,18,0.00,8,,207
2012-10-21,69,64,59,63,62,59,100,97,84,29.93,29.89,29.86,7,7,6,12,6,,0.00,5,,282
2012-10-22,69,62,57,63,59,57,100,91,78,30.00,29.96,29.90,9,7,5,12,3,,0.00,7,Rain,270
2012-10-23,69,58,51,60,56,51,100,90,73,30.00,29.97,29.92,9,7,7,18,5,26,0.01,2,Rain,322
2012-10-24,70,60,50,62,53,46,100,79,53,30.09,30.03,29.96,10,8,7,21,6,28,0.00,0,,315
2012-10-25,73,62,50,68,53,45,89,72,40,30.11,30.04,29.97,10,8,7,20,7,29,0.00,0,,344
2012-10-26,82,73,64,71,39,24,100,34,16,30.05,29.98,29.94,10,7,7,26,17,34,0.00,0,Rain,43
2012-10-27,82,70,60,72,51,22,100,58,15,29.93,29.88,29.83,10,8,7,15,10,24,0.00,0,,22
2012-10-28,77,64,50,61,54,45,89,65,43,30.01,29.94,29.90,10,8,7,17,4,,0.00,0,,162
2012-10-29,84,58,46,60,52,40,97,76,56,30.10,30.05,30.02,10,6,0,9,3,,0.00,2,Fog,182
2012-10-30,68,59,50,59,55,50,100,92,73,30.09,30.04,29.98,7,3,0,8,3,,0.00,4,Fog,63
2012-10-31,64,58,53,58,55,54,100,91,74,30.08,30.02,29.99,7,4,0,14,6,,0.00,7,Fog,51